Terminal Aerodrome Forecast
Issued by NWS Amarillo, TX

Home | Current Version | Previous Version | Text Only | Print | Product List | Glossary On
Versions: 1 2 3 4 5 6 7 8 9 10 11 12 13 14
000
FTUS44 KAMA 291100
TAFDHT
TAF
KDHT 291120Z 2912/3012 36016KT P6SM OVC250
     FM291500 02019G28KT P6SM OVC250
     FM300000 07008KT P6SM OVC200
     FM300700 22008KT P6SM OVC150=

USA.gov is the U.S. government's official web portal to all federal, state and local government web resources and services.